K3JAR-3 Weather Reports


time (UTC)temp
F
wind
direction
speed
knots
gust
knots
rain 1hr
in
rain 24hr
in
rain mn
in
humidity
%
barometer
mb
20260509162018 83 290 4.3 7.0 0.00 0.04 0.00 56 1012.6
20260509161020 83 275 4.3 7.8 0.00 0.04 0.00 55 1012.7
20260509160019 82 285 3.5 6.1 0.00 0.04 0.00 55 1012.6
20260509155022 82 299 4.3 7.0 0.00 0.04 0.00 56 1012.5
20260509154026 81 300 4.3 9.6 0.00 0.04 0.00 57 1012.6
20260509153054 81 273 7.8 10.4 0.00 0.04 0.00 56 1012.5
20260509152026 81 296 6.1 8.7 0.00 0.04 0.00 59 1012.5
20260509151024 80 265 4.3 7.0 0.00 0.04 0.00 64 1012.5
20260509150035 80 301 5.2 8.7 0.00 0.04 0.00 65 1012.5
20260509145018 79 299 4.3 7.0 0.00 0.04 0.00 70 1012.6
20260509144016 78 291 2.6 5.2 0.00 0.04 0.00 72 1012.7
20260509143025 77 276 3.5 7.8 0.00 0.04 0.00 73 1012.7
20260509142028 77 320 3.5 6.1 0.00 0.04 0.00 75 1012.7
20260509141032 76 311 3.5 6.1 0.00 0.04 0.00 78 1012.7
20260509140057 75 306 3.5 5.2 0.00 0.04 0.00 80 1012.7
20260509135025 74 281 2.6 4.3 0.00 0.04 0.00 81 1012.5
20260509134024 74 300 4.3 7.0 0.00 0.04 0.00 81 1012.5
20260509133047 73 321 3.5 7.0 0.00 0.04 0.00 83 1012.3
20260509132030 72 293 6.1 9.6 0.00 0.04 0.00 84 1012.2
20260509131016 72 290 5.2 8.7 0.00 0.04 0.00 85 1012.2
20260509130019 72 278 5.2 8.7 0.00 0.04 0.00 86 1012.2
20260509125022 72 289 6.1 8.7 0.00 0.04 0.00 86 1012.2
20260509124045 71 239 3.5 5.2 0.00 0.04 0.00 88 1012.1
20260509123048 70 271 3.5 6.1 0.00 0.04 0.00 91 1012.1
20260509122032 70 261 1.7 3.5 0.00 0.04 0.00 92 1011.9
20260509121037 70 232 2.6 2.6 0.00 0.04 0.00 93 1011.7
20260509120041 69 228 1.7 2.6 0.00 0.04 0.00 94 1011.9
20260509115024 69 266 0.9 1.7 0.00 0.04 0.00 93 1011.7
20260509114027 70 202 0.0 1.7 0.00 0.04 0.00 93 1011.7
20260509113025 70 172 1.7 1.7 0.00 0.04 0.00 91 1011.6
20260509112016 71 174 3.5 4.3 0.00 0.04 0.00 91 1011.6
20260509111019 72 212 3.5 5.2 0.00 0.04 0.00 90 1011.7
20260509110016 71 231 5.2 7.0 0.00 0.04 0.00 91 1011.7
20260509105026 71 271 2.6 5.2 0.00 0.04 0.00 93 1011.5
20260509104029 71 284 1.7 3.5 0.00 0.04 0.00 94 1011.5
20260509103053 71 284 2.6 5.2 0.00 0.04 0.00 95 1011.5
20260509102018 70 312 6.1 7.8 0.00 0.04 0.00 97 1011.3
20260509101041 70 265 5.2 10.4 0.00 0.04 0.00 98 1011.0
20260509100024 69 218 4.3 6.1 0.00 0.04 0.00 98 1009.3
20260509095027 70 171 5.2 7.8 0.00 0.04 0.00 98 1009.0
20260509094030 70 182 7.0 10.4 0.00 0.04 0.00 98 1008.9
20260509093020 70 180 7.8 13.0 0.00 0.04 0.00 98 1008.9
20260509092024 70 154 7.8 9.6 0.00 0.04 0.00 98 1009.0
20260509091022 70 184 7.8 11.3 0.00 0.04 0.00 98 1009.1
20260509090025 70 165 9.6 13.0 0.00 0.04 0.00 98 1009.2
20260509085029 69 173 9.6 13.0 0.00 0.04 0.00 98 1009.2
20260509084032 69 161 7.0 10.4 0.00 0.04 0.00 98 1010.0
20260509083017 69 173 6.1 7.8 0.00 0.04 0.00 98 1010.4
20260509082022 69 167 3.5 6.1 0.00 0.04 0.00 98 1011.0
20260509081044 69 177 3.5 5.2 0.00 0.04 0.00 97 1011.4
20260509080028 69 183 4.3 5.2 0.00 0.04 0.00 97 1012.0
20260509075050 69 192 4.3 7.0 0.00 0.04 0.00 97 1012.2
20260509074016 70 206 5.2 7.8 0.00 0.04 0.00 97 1012.9
20260509073019 70 231 4.3 7.0 0.00 0.04 0.00 97 1013.0
20260509072016 70 245 2.6 4.3 0.00 0.04 0.00 97 1013.2
20260509071026 70 267 3.5 6.1 0.00 0.04 0.00 98 1013.3
20260509070029 70 249 4.3 5.2 0.00 0.04 0.00 98 1013.3
20260509065032 69 251 3.5 4.3 0.00 0.04 0.00 99 1013.0
20260509064018 69 207 1.7 2.6 0.00 0.04 0.00 99 1013.0
20260509063021 69 245 0.9 1.7 0.00 0.04 0.00 99 1013.2
20260509062030 69 310 1.7 2.6 0.00 0.04 0.00 99 1013.2
20260509061028 69 0 0.0 1.7 0.00 0.04 0.00 99 1013.2
20260509060031 69 324 2.6 3.5 0.00 0.04 0.00 99 1013.2
20260509055016 69 304 2.6 3.5 0.00 0.04 0.00 98 1012.9
20260509054025 69 298 2.6 3.5 0.00 0.04 0.00 97 1012.2
20260509053023 69 162 1.7 2.6 0.00 0.04 0.00 97 1012.4
20260509052027 69 0.0 0.9 0.00 0.04 0.00 97 1012.3
20260509051050 70 193 0.0 1.7 0.00 0.04 0.00 96 1012.2
20260509050015 70 172 1.7 1.7 0.00 0.04 0.00 95 1012.1
20260509045020 70 166 1.7 3.5 0.00 0.04 0.04 94 1012.2
20260509044142 70 160 1.7 2.6 0.00 0.04 0.04 94 1012.5
20260509043025 71 103 0.9 1.7 0.00 0.04 0.04 93 1012.7
20260509042028 71 27 1.7 1.7 0.00 0.04 0.04 93 1012.6
20260509041046 71 55 0.9 1.7 0.00 0.04 0.04 92 1012.5
20260509040017 71 43 2.6 3.5 0.00 0.04 0.04 92 1012.1
20260509035020 71 142 0.9 1.7 0.00 0.04 0.04 91 1012.1
20260509034017 72 171 2.6 3.5 0.00 0.04 0.04 90 1011.7
20260509033020 72 163 2.6 3.5 0.00 0.04 0.04 90 1011.6
20260509032030 72 152 2.6 3.5 0.00 0.04 0.04 90 1011.6
20260509031016 72 150 1.7 2.6 0.00 0.04 0.04 89 1011.7
20260509030120 72 136 1.7 2.6 0.00 0.04 0.04 89 1011.2
20260509025022 72 156 3.5 4.3 0.00 0.04 0.04 89 1011.0
20260509024025 72 153 3.5 5.2 0.00 0.04 0.04 89 1011.0
20260509023029 72 165 2.6 3.5 0.00 0.04 0.04 89 1011.1
20260509022052 72 153 1.7 2.6 0.00 0.04 0.04 89 1011.1
20260509021019 72 168 1.7 2.6 0.00 0.04 0.04 89 1011.0
20260509020025 72 157 0.0 1.7 0.00 0.04 0.04 89 1011.0
20260509015110 72 139 0.0 1.7 0.00 0.04 0.04 89 1010.8
20260509014026 72 110 0.0 1.7 0.00 0.04 0.04 88 1010.8
20260509013017 72 70 0.0 1.7 0.00 0.04 0.04 88 1010.7
20260509012021 73 105 0.9 1.7 0.00 0.04 0.04 87 1010.6
20260509011019 73 102 0.9 1.7 0.00 0.04 0.04 86 1010.5
20260509010036 73 152 0.9 1.7 0.00 0.04 0.04 85 1010.3
20260509005032 74 104 0.9 1.7 0.00 0.04 0.04 83 1010.1
20260509004037 75 94 0.9 1.7 0.00 0.04 0.04 82 1010.1
20260509003100 75 112 1.7 4.3 0.00 0.04 0.04 82 1010.2
20260509002023 74 122 1.7 2.6 0.00 0.04 0.04 84 1010.3
20260509001026 74 85 1.7 1.7 0.00 0.04 0.04 83 1010.5
20260509000030 75 155 0.9 1.7 0.00 0.04 0.04 82 1010.5
20260508235015 74 158 2.6 4.3 0.00 0.04 0.04 82 1010.5
20260508234058 74 134 1.7 3.5 0.00 0.04 0.04 82 1010.5
20260508233022 74 154 0.9 2.6 0.00 0.04 0.04 83 1010.5
20260508232025 74 85 1.7 3.5 0.00 0.04 0.04 81 1010.5
20260508231053 75 116 1.7 3.5 0.00 0.04 0.04 80 1010.5
20260508230036 75 130 1.7 3.5 0.00 0.04 0.04 80 1010.5
20260508225017 74 133 1.7 4.3 0.00 0.04 0.04 81 1010.5
20260508224040 74 152 2.6 4.3 0.00 0.04 0.04 81 1010.7
20260508223023 74 154 1.7 4.3 0.00 0.04 0.04 82 1010.7
20260508222026 74 166 2.6 3.5 0.00 0.04 0.04 81 1010.7
20260508221034 73 147 2.6 5.2 0.00 0.04 0.04 84 1010.8
20260508220027 72 179 4.3 6.1 0.00 0.04 0.04 82 1011.0
20260508215018 71 201 3.5 4.3 0.00 0.04 0.04 84 1011.2
20260508214046 71 186 1.7 4.3 0.02 0.04 0.04 84 1011.4
20260508213023 70 159 1.7 2.6 0.04 0.04 0.04 85 1011.6
20260508212041 71 178 1.7 2.6 0.04 0.04 0.04 86 1011.8
20260508211031 68 204 1.7 2.6 0.04 0.04 0.04 91 1011.9
20260508210016 67 273 2.6 4.3 0.04 0.04 0.04 93 1012.2
20260508205019 67 288 3.5 9.6 0.04 0.04 0.04 93 1010.1
20260508204023 67 116 4.3 7.8 0.02 0.02 0.02 89 1011.9
20260508203026 68 123 2.6 5.2 0.00 0.00 0.00 84 1012.5
20260508202054 70 157 4.3 7.0 0.00 0.00 0.00 80 1012.7
20260508201032 70 177 2.6 5.2 0.00 0.00 0.00 77 1012.9
20260508200018 70 154 2.6 6.1 0.00 0.00 0.00 76 1013.3
20260508195021 70 145 5.2 6.1 0.00 0.00 0.00 75 1013.2
20260508194049 71 183 7.0 7.8 0.00 0.00 0.00 74 1013.0
20260508193028 72 182 5.2 7.0 0.00 0.00 0.00 73 1013.0
20260508192032 73 170 5.2 7.0 0.00 0.00 0.00 71 1013.1
20260508191016 71 159 6.1 7.0 0.00 0.00 0.00 73 1013.4
20260508190020 72 172 5.2 7.0 0.00 0.00 0.00 72 1013.4
20260508185023 72 170 5.2 7.0 0.00 0.00 0.00 72 1013.6
20260508184048 72 166 7.0 10.4 0.00 0.00 0.00 72 1013.7
20260508183032 72 155 5.2 7.8 0.00 0.00 0.00 72 1014.0
20260508182018 73 161 4.3 6.1 0.00 0.00 0.00 72 1014.0
20260508181022 73 145 2.6 7.8 0.00 0.00 0.00 70 1014.0
20260508180026 74 141 2.6 4.3 0.00 0.00 0.00 70 1014.0
20260508175024 73 95 3.5 7.0 0.00 0.00 0.00 70 1014.2
20260508174036 72 162 3.5 6.1 0.00 0.00 0.00 71 1014.5
20260508173021 72 159 3.5 6.1 0.00 0.00 0.00 71 1014.7
20260508172058 72 153 1.7 3.5 0.00 0.00 0.00 73 1014.9
20260508171118 71 170 4.3 6.1 0.00 0.00 0.00 73 1015.0
20260508170033 72 157 2.6 3.5 0.00 0.00 0.00 71 1014.9
20260508165019 72 132 2.6 5.2 0.00 0.00 0.00 72 1015.1
20260508164023 71 153 3.5 4.3 0.00 0.00 0.00 72 1015.2
20260508163027 70 148 3.5 6.1 0.00 0.00 0.00 72 1015.5